| time (UTC) | temp F | wind direction | speed MPH | gust MPH | rain 1hr in | rain 24hr in | rain mn in | humidity % | barometer mb |
| 20260905023047 | 70 | 261 | 4.0 | 11.0 | 0.00 | 0.00 | 0.00 | 83 | 1011.5 |
| 20260905021523 | 70 | 217 | 7.0 | 12.0 | 0.00 | 0.00 | 0.00 | 82 | 1011.5 |
| 20260905020025 | 71 | 250 | 7.0 | 14.0 | 0.00 | 0.00 | 0.00 | 81 | 1011.4 |
| 20260905014521 | 71 | 252 | 9.0 | 13.0 | 0.00 | 0.00 | 0.00 | 80 | 1011.5 |
| 20260905013025 | 71 | 252 | 11.0 | 15.0 | 0.00 | 0.00 | 0.00 | 79 | 1011.5 |
| 20260905011520 | 72 | 254 | 12.0 | 17.0 | 0.00 | 0.00 | 0.00 | 79 | 1011.5 |
| 20260905010018 | 72 | 244 | 11.0 | 17.0 | 0.00 | 0.00 | 0.00 | 79 | 1011.5 |
| 20260905004518 | 72 | 248 | 10.0 | 19.0 | 0.00 | 0.00 | 0.00 | 79 | 1011.7 |
| 20260905003017 | 72 | 255 | 12.0 | 17.0 | 0.00 | 0.00 | 0.00 | 79 | 1011.7 |
| 20260905001520 | 72 | 256 | 10.0 | 18.0 | 0.00 | 0.00 | 0.00 | 78 | 1011.7 |
| 20260905000013 | 73 | 207 | 7.0 | 12.0 | 0.00 | 0.00 | 0.00 | 76 | 1012.0 |
| 20260904234514 | 74 | 229 | 5.0 | 11.0 | 0.00 | 0.00 | 0.00 | 75 | 1012.1 |
| 20260904233007 | 74 | 160 | 7.0 | 11.0 | 0.00 | 0.00 | 0.00 | 70 | 1012.0 |
| 20260904231511 | 74 | 146 | 7.0 | 9.0 | 0.00 | 0.00 | 0.00 | 71 | 1012.1 |
| 20260904230001 | 74 | 155 | 6.0 | 10.0 | 0.00 | 0.00 | 0.00 | 71 | 1012.2 |
| 20260904224605 | 74 | 171 | 6.0 | 8.0 | 0.00 | 0.00 | 0.00 | 71 | 1012.3 |
| 20260904223058 | 74 | 181 | 7.0 | 11.0 | 0.00 | 0.00 | 0.00 | 70 | 1012.4 |
| 20260904221556 | 74 | 148 | 6.0 | 9.0 | 0.00 | 0.00 | 0.00 | 69 | 1012.4 |
| 20260904220111 | 74 | 178 | 4.0 | 9.0 | 0.00 | 0.00 | 0.00 | 71 | 1012.5 |
| 20260904214548 | 75 | 166 | 3.0 | 8.0 | 0.00 | 0.00 | 0.00 | 70 | 1012.5 |
| 20260904213048 | 74 | 162 | 4.0 | 8.0 | 0.00 | 0.00 | 0.00 | 69 | 1012.7 |
| 20260904211553 | 74 | 189 | 5.0 | 8.0 | 0.00 | 0.00 | 0.00 | 68 | 1012.8 |
| 20260904210059 | 75 | 178 | 4.0 | 8.0 | 0.00 | 0.00 | 0.00 | 68 | 1012.8 |
| 20260904204548 | 75 | 134 | 4.0 | 8.0 | 0.00 | 0.00 | 0.00 | 69 | 1012.9 |
| 20260904203143 | 75 | 144 | 2.0 | 7.0 | 0.00 | 0.00 | 0.00 | 69 | 1013.0 |
| 20260904201542 | 75 | 184 | 4.0 | 9.0 | 0.00 | 0.00 | 0.00 | 68 | 1013.1 |
| 20260904200041 | 74 | 152 | 3.0 | 7.0 | 0.00 | 0.00 | 0.00 | 69 | 1013.2 |
| 20260904194550 | 74 | 163 | 3.0 | 8.0 | 0.00 | 0.00 | 0.00 | 70 | 1013.3 |
| 20260904193041 | 74 | 168 | 4.0 | 7.0 | 0.00 | 0.00 | 0.00 | 70 | 1013.5 |
| 20260904191542 | 75 | 147 | 2.0 | 7.0 | 0.00 | 0.00 | 0.00 | 69 | 1013.6 |
| 20260904190034 | 73 | 146 | 3.0 | 9.0 | 0.00 | 0.00 | 0.00 | 72 | 1013.8 |
| 20260904184532 | 73 | 105 | 5.0 | 9.0 | 0.00 | 0.00 | 0.00 | 74 | 1014.0 |
| 20260904183037 | 73 | 99 | 3.0 | 10.0 | 0.00 | 0.00 | 0.00 | 75 | 1014.0 |
| 20260904181530 | 74 | 87 | 6.0 | 10.0 | 0.00 | 0.00 | 0.00 | 73 | 1014.0 |
| 20260904180029 | 73 | 144 | 4.0 | 8.0 | 0.00 | 0.00 | 0.00 | 74 | 1014.0 |
| 20260904174555 | 73 | 102 | 5.0 | 8.0 | 0.00 | 0.00 | 0.00 | 74 | 1014.1 |
| 20260904173027 | 73 | 114 | 4.0 | 8.0 | 0.00 | 0.00 | 0.00 | 75 | 1013.9 |
| 20260904171525 | 73 | 152 | 3.0 | 8.0 | 0.00 | 0.00 | 0.00 | 76 | 1013.9 |
| 20260904170024 | 72 | 89 | 4.0 | 9.0 | 0.00 | 0.00 | 0.00 | 76 | 1013.9 |
| 20260904164519 | 72 | 94 | 4.0 | 8.0 | 0.00 | 0.00 | 0.00 | 77 | 1013.6 |
| 20260904163017 | 72 | 97 | 3.0 | 8.0 | 0.00 | 0.00 | 0.00 | 77 | 1013.4 |
| 20260904161514 | 72 | 87 | 4.0 | 8.0 | 0.00 | 0.00 | 0.00 | 78 | 1013.3 |
| 20260904160012 | 71 | 80 | 4.0 | 8.0 | 0.00 | 0.00 | 0.00 | 79 | 1013.1 |
| 20260904154510 | 71 | 88 | 3.0 | 7.0 | 0.00 | 0.00 | 0.00 | 79 | 1013.1 |
| 20260904153009 | 70 | 91 | 4.0 | 8.0 | 0.00 | 0.00 | 0.00 | 79 | 1013.0 |
| 20260904151506 | 70 | 90 | 5.0 | 8.0 | 0.00 | 0.00 | 0.00 | 81 | 1013.0 |
| 20260904150005 | 69 | 45 | 6.0 | 10.0 | 0.00 | 0.00 | 0.00 | 84 | 1013.0 |
| 20260904144559 | 69 | 115 | 5.0 | 9.0 | 0.00 | 0.00 | 0.00 | 84 | 1012.9 |
| 20260904143103 | 69 | 92 | 2.0 | 5.0 | 0.00 | 0.00 | 0.00 | 85 | 1012.7 |
| 20260904141557 | 67 | 299 | 0.0 | 7.0 | 0.00 | 0.00 | 0.00 | 85 | 1012.5 |
| 20260904140052 | 66 | 321 | 1.0 | 2.0 | 0.00 | 0.00 | 0.00 | 86 | 1012.4 |
| 20260904134550 | 66 | 306 | 1.0 | 3.0 | 0.00 | 0.00 | 0.00 | 86 | 1012.3 |
| 20260904133057 | 66 | 329 | 1.0 | 3.0 | 0.00 | 0.00 | 0.00 | 87 | 1012.3 |
| 20260904131549 | 65 | 316 | 1.0 | 3.0 | 0.00 | 0.00 | 0.00 | 87 | 1012.2 |
| 20260904130047 | 65 | 315 | 1.0 | 2.0 | 0.00 | 0.00 | 0.00 | 88 | 1012.1 |
| 20260904124552 | 65 | 321 | 1.0 | 1.0 | 0.00 | 0.00 | 0.00 | 88 | 1012.1 |
| 20260904123107 | 65 | 312 | 1.0 | 2.0 | 0.00 | 0.00 | 0.00 | 88 | 1012.0 |
| 20260904121546 | 65 | 306 | 1.0 | 2.0 | 0.00 | 0.00 | 0.00 | 87 | 1011.9 |
| 20260904120044 | 65 | 322 | 1.0 | 2.0 | 0.00 | 0.00 | 0.00 | 87 | 1011.9 |
| 20260904114544 | 65 | 323 | 0.0 | 0.0 | 0.00 | 0.00 | 0.00 | 87 | 1011.9 |
| 20260904113052 | 65 | 311 | 0.0 | 2.0 | 0.00 | 0.00 | 0.00 | 87 | 1011.9 |
| 20260904111542 | 65 | 313 | 0.0 | 0.0 | 0.00 | 0.00 | 0.00 | 87 | 1011.9 |
| 20260904110051 | 65 | 292 | 0.0 | 0.0 | 0.00 | 0.00 | 0.00 | 87 | 1011.9 |
| 20260904104540 | 65 | 292 | 0.0 | 0.0 | 0.00 | 0.00 | 0.00 | 87 | 1011.9 |
| 20260904103039 | 65 | 290 | 0.0 | 0.0 | 0.00 | 0.00 | 0.00 | 87 | 1011.9 |
| 20260904101539 | 66 | 290 | 0.0 | 0.0 | 0.00 | 0.00 | 0.00 | 87 | 1011.7 |
| 20260904100041 | 66 | 278 | 0.0 | 0.0 | 0.00 | 0.00 | 0.00 | 87 | 1011.8 |
| 20260904094532 | 67 | 252 | 0.0 | 0.0 | 0.00 | 0.00 | 0.00 | 86 | 1011.9 |
| 20260904093044 | 67 | 252 | 0.0 | 0.0 | 0.00 | 0.00 | 0.00 | 86 | 1011.9 |
| 20260904091532 | 67 | 252 | 0.0 | 0.0 | 0.00 | 0.00 | 0.00 | 86 | 1011.9 |
| 20260904090031 | 67 | 252 | 0.0 | 0.0 | 0.00 | 0.00 | 0.00 | 85 | 1011.9 |
| 20260904084529 | 67 | 252 | 0.0 | 0.0 | 0.00 | 0.00 | 0.00 | 84 | 1012.0 |
| 20260904083029 | 67 | 252 | 0.0 | 0.0 | 0.00 | 0.00 | 0.00 | 84 | 1012.0 |
| 20260904081528 | 67 | 235 | 0.0 | 0.0 | 0.00 | 0.00 | 0.00 | 84 | 1012.1 |
| 20260904080027 | 67 | 248 | 0.0 | 0.0 | 0.00 | 0.00 | 0.00 | 85 | 1012.1 |
| 20260904074526 | 67 | 224 | 0.0 | 0.0 | 0.00 | 0.00 | 0.00 | 85 | 1012.0 |
| 20260904073025 | 67 | 265 | 0.0 | 0.0 | 0.00 | 0.00 | 0.00 | 85 | 1012.1 |
| 20260904071522 | 67 | 265 | 0.0 | 0.0 | 0.00 | 0.00 | 0.00 | 85 | 1012.1 |
| 20260904070036 | 68 | 240 | 0.0 | 1.0 | 0.00 | 0.00 | 0.00 | 85 | 1012.0 |
| 20260904064520 | 68 | 201 | 0.0 | 2.0 | 0.00 | 0.00 | 0.00 | 84 | 1012.0 |
| 20260904063020 | 68 | 248 | 0.0 | 3.0 | 0.00 | 0.00 | 0.00 | 84 | 1012.0 |
| 20260904061519 | 68 | 245 | 1.0 | 3.0 | 0.00 | 0.00 | 0.00 | 84 | 1011.9 |
| 20260904060021 | 68 | 236 | 3.0 | 5.0 | 0.00 | 0.00 | 0.00 | 84 | 1011.8 |
| 20260904054529 | 68 | 258 | 2.0 | 5.0 | 0.00 | 0.00 | 0.00 | 84 | 1011.8 |
| 20260904053018 | 68 | 247 | 2.0 | 6.0 | 0.00 | 0.00 | 0.00 | 83 | 1011.9 |
| 20260904051517 | 69 | 268 | 3.0 | 8.0 | 0.00 | 0.00 | 0.00 | 83 | 1012.0 |
| 20260904050019 | 69 | 238 | 4.0 | 8.0 | 0.00 | 0.00 | 0.00 | 82 | 1012.0 |
| 20260904044524 | 69 | 261 | 4.0 | 7.0 | 0.00 | 0.00 | 0.00 | 82 | 1011.9 |
| 20260904043016 | 69 | 263 | 4.0 | 7.0 | 0.00 | 0.00 | 0.00 | 82 | 1011.8 |
| 20260904041513 | 69 | 247 | 5.0 | 9.0 | 0.00 | 0.00 | 0.00 | 82 | 1011.8 |
| 20260904040015 | 69 | 244 | 5.0 | 9.0 | 0.00 | 0.00 | 0.00 | 82 | 1011.6 |
| 20260904034524 | 69 | 238 | 6.0 | 9.0 | 0.00 | 0.00 | 0.00 | 82 | 1011.4 |
| 20260904033011 | 69 | 267 | 6.0 | 12.0 | 0.00 | 0.00 | 0.00 | 82 | 1011.3 |
| 20260904031514 | 69 | 254 | 6.0 | 10.0 | 0.00 | 0.00 | 0.00 | 84 | 1011.1 |
| 20260904030009 | 69 | 257 | 6.0 | 12.0 | 0.00 | 0.00 | 0.00 | 84 | 1011.1 |